Location: Miss�
(46.9484°N, 0.1922°W)
Time: 00:27:09
(UTC+00:00)

SJ 16-02 - Pass Details

Date: 02 March 2021
Orbit: 605 x 617 km, 75.0° (Epoch: 14 April)

Event Time Altitude Azimuth Distance (km) Brightness Sun altitude
Rises 20:57:29 0° 336° (NNW) 2,883 5.5 -32.2°
Reaches altitude 10° 20:59:45 10° 334° (NNW) 1,976 4.5 -32.6°
Enters shadow 21:01:26 23° 329° (NNW) 1,329 3.5 -32.8°
